Date,TemperatureHighF,TemperatureAvgF,TemperatureLowF,DewpointHighF,DewpointAvgF,DewpointLowF,HumidityHigh,HumidityAvg,HumidityLow,PressureMaxIn,PressureMinIn,WindSpeedMaxMPH,WindSpeedAvgMPH,GustSpeedMaxMPH,PrecipitationSumIn
2013-6-1,68,63,58,50,39,34,62,42,32,29.85,29.65,17,9,17,0.00
2013-6-2,67,60,0,44,32,0,61,35,24,30.03,29.94,18,5,18,4.82
2013-6-3,73,65,0,44,31,0,66,27,21,30.00,24.57,15,7,20,4.82
2013-6-4,75,66,0,58,49,0,84,54,40,29.94,29.85,20,6,20,5.07
2013-6-5,67,65,62,60,57,52,85,75,60,29.91,29.85,18,3,18,5.40
2013-6-6,73,69,56,56,38,30,88,37,22,29.91,29.85,21,4,186,0.00
2013-6-7,73,66,0,50,36,0,73,36,19,29.97,24.57,13,4,13,5.40
2013-6-8,78,72,0,46,34,0,52,25,18,29.85,24.57,20,8,20,5.40
2013-6-9,71,66,0,47,43,0,51,42,35,29.76,25.42,21,4,21,5.98
2013-6-10,83,73,0,55,46,0,76,40,22,29.85,29.76,8,3,8,5.98
2013-6-11,92,80,0,52,43,0,47,27,14,29.79,24.57,129,8,129,5.98
2013-6-12,92,83,0,54,45,0,41,25,18,29.79,29.68,21,8,21,5.98
2013-6-13,85,75,62,44,40,0,46,29,19,30.00,0.00,20,3,20,0.00
2013-6-14,84,76,64,60,50,40,73,44,22,29.97,0.00,22,7,22,5.98
2013-6-15,87,76,67,62,55,41,84,50,22,29.94,25.31,186,8,186,6.27
2013-6-16,75,67,0,56,48,0,55,44,43,29.91,29.88,1,0,2,0.00
2013-6-17,88,79,0,74,53,0,96,50,18,29.94,0.00,115,2,115,6.27
2013-6-18,83,76,66,56,44,35,71,34,19,30.00,0.00,18,3,18,6.31
2013-6-19,86,77,0,68,46,0,93,38,20,30.00,0.00,12,5,13,6.31
2013-6-20,87,82,0,60,50,0,67,35,24,29.97,29.82,23,9,23,6.31
2013-6-21,92,83,0,61,51,0,59,33,19,29.91,29.82,20,8,20,6.31
2013-6-22,91,85,72,61,53,44,65,36,20,29.94,29.82,15,6,15,6.31
2013-6-23,81,75,0,64,57,0,81,54,44,29.94,24.57,28,6,28,6.48
2013-6-24,84,77,0,63,56,0,66,48,26,29.97,29.71,31,5,31,6.48
2013-6-25,88,81,74,64,54,48,69,40,29,29.76,24.57,25,8,25,6.52
2013-6-26,91,86,0,64,49,0,62,30,15,29.79,29.68,21,7,21,6.52
2013-6-27,82,76,70,66,60,53,69,58,47,29.94,24.57,20,2,115,0.04
2013-6-28,85,80,0,66,38,0,90,26,13,29.88,29.76,18,9,20,13.56
2013-6-29,80,75,65,49,38,30,46,28,17,29.82,29.76,24,11,115,6.61
2013-6-30,79,73,62,46,36,0,55,28,18,29.97,29.88,11,4,12,6.61